Skip Page Navigation
NASA JPL Caltech
NASA Logo - Jet Propulsion Laboratory + View the NASA Portal
+ Center for Near-Earth Object Studies
JPL Home Earth Solar System Stars & Galaxies Technology
JPL Solar System Dynamics
BODIES ORBITS EPHEMERIDES TOOLS PHYSICAL DATA DISCOVERY FAQ SITE MAP
JPL Small-Body Database Browser
Search: [ help ]  
(2016 JL6)
Classification: Amor [NEO]          SPK-ID: 3752800
Ephemeris | Orbit Diagram | Orbital Elements | Mission Design | Physical Parameters | Close-Approach Data ]

[ hide orbit diagram ]

For accurate long-term ephemerides, please instead use our Horizons system.This orbit viewer was implemented using two-body methods, and hence should not be used for determining accurate long-term trajectories (over several years or decades) or planetary encounter circumstances.


[ revert to old Java-based viewer ]

Orbital Elements at Epoch 2459000.5 (2020-May-31.0) TDB
Reference: JPL 20 (heliocentric ecliptic J2000)
 Element Value Uncertainty (1-sigma)   Units 
e .5378119629849929 5.2953e-05  
a 2.367983164060225 0.00027623 au
q 1.094453490281581 2.2804e-06 au
i 1.473426476160081 8.7701e-05 deg
node 109.4619320388135 0.00035019 deg
peri 153.7360443718718 0.0010808 deg
M 32.33313232754214 0.07208 deg
tp 2458880.960448731603
(2020-Feb-01.46044873)
0.24557 TDB
period 1330.964102725221
3.64
0.23289
0.0006376
d
yr
n .2704806232285909 4.7329e-05 deg/d
Q 3.641512837838869 0.0004248 au
  Orbit Determination Parameters
   # obs. used (total)      73  
   data-arc span      87 days  
   first obs. used      2016-05-04  
   last obs. used      2016-07-30  
   planetary ephem.      DE431  
   SB-pert. ephem.      SB431-N16  
   condition code      6  
   norm. resid. RMS      .70636  
   source      ORB  
   producer      Otto Matic  
   solution date      2017-Apr-06 08:26:07  

Additional Information
 Earth MOID = .0796472 au 
 Jupiter MOID = 1.46325 au 
 T_jup = 3.334 
[ show covariance matrix ]

Ephemeris | Orbit Diagram | Orbital Elements | Mission Design | Physical Parameters | Close-Approach Data ]

Physical Parameter Table
Parameter Symbol Value Units Sigma Reference Notes
absolute magnitude H 23.5   n/a MPO386979  

[ show close-approach data ]
Ephemeris | Orbit Diagram | Orbital Elements | Mission Design | Physical Parameters | Close-Approach Data ]
ABOUT SSD CREDITS/AWARDS PRIVACY/COPYRIGHT GLOSSARY LINKS
FirstGov 2020-Oct-31 04:46 UT
(server date/time)  
NASA Home Page
Site Manager:   Ryan S. Park
Webmaster  Alan B. Chamberlin